^^
Your Local Weather - Clay, NY Station Historical Data
Daily Summary for January 6, 2017 Units:  Metric    English   Both
« Previous Day
Next Day »
Daily Weekly Monthly Yearly Custom
  High: Low: Average:
Temperature: -5.9 °C -12.5 °C -8.3 °C
Dew Point: -9.2 °C -15.9 °C -14 °C
Humidity: 83% 47% 65%
Wind Speed: 11.3km/h 0km/h 4km/h
Wind Gust: 19.3km/h - -
Wind- - WSW
Pressure: 1025.3 hPa 1012.4 hPa -
Precipitation: 0 mm    
Historical Graphs
 
 
Tabular Data for January 6, 2017
Time Temperature Dew Point Pressure Wind Wind Speed Wind Gust Humidity Rainfall Rate (Hourly) solar
00:00 -6.8 °C -9.2 °C 1012.4 hPa NW 1.6 km/h 1.6 km/h 83% 0 mm 0 W/m2
00:06 -6.8 °C -9.3 °C 1012.4 hPa SW 1.6 km/h 1.6 km/h 82% 0 mm 0 W/m2
00:12 -6.8 °C -9.4 °C 1012.8 hPa SW 1.6 km/h 4.8 km/h 82% 0 mm 0 W/m2
00:18 -6.7 °C -9.4 °C 1012.8 hPa SW 1.6 km/h 4.8 km/h 81% 0 mm 0 W/m2
00:26 -6.6 °C -9.5 °C 1012.8 hPa WSW 1.6 km/h 4.8 km/h 80% 0 mm 0 W/m2
00:32 -6.6 °C -9.5 °C 1012.8 hPa WNW 1.6 km/h 8 km/h 80% 0 mm 0 W/m2
00:38 -6.6 °C -9.7 °C 1012.8 hPa WSW 3.2 km/h 8 km/h 79% 0 mm 0 W/m2
00:44 -6.6 °C -9.6 °C 1012.8 hPa SW 3.2 km/h 3.2 km/h 79% 0 mm 0 W/m2
00:50 -6.6 °C -9.8 °C 1012.8 hPa WSW 3.2 km/h 3.2 km/h 78% 0 mm 0 W/m2
00:56 -6.6 °C -9.8 °C 1012.8 hPa WSW 3.2 km/h 4.8 km/h 78% 0 mm 0 W/m2
01:02 -6.6 °C -9.8 °C 1012.8 hPa West 3.2 km/h 8 km/h 78% 0 mm 0 W/m2
01:08 -6.7 °C -9.9 °C 1012.8 hPa WSW 3.2 km/h 8 km/h 78% 0 mm 0 W/m2
01:14 -6.7 °C -9.9 °C 1012.8 hPa WSW 3.2 km/h 3.2 km/h 78% 0 mm 0 W/m2
01:20 -6.8 °C -10 °C 1012.8 hPa SW 3.2 km/h 6.4 km/h 78% 0 mm 0 W/m2
01:26 -6.9 °C -10.1 °C 1012.8 hPa WSW 3.2 km/h 6.4 km/h 78% 0 mm 0 W/m2
01:32 -7 °C -10.2 °C 1012.8 hPa WSW 3.2 km/h 3.2 km/h 78% 0 mm 0 W/m2
01:38 -7.1 °C -10.2 °C 1013.1 hPa WNW 3.2 km/h 8 km/h 78% 0 mm 0 W/m2
01:44 -7.1 °C -10.3 °C 1013.1 hPa WNW 3.2 km/h 3.2 km/h 78% 0 mm 0 W/m2
01:50 -7.2 °C -10.3 °C 1013.1 hPa WSW 1.6 km/h 4.8 km/h 78% 0 mm 0 W/m2
01:56 -7.2 °C -10.3 °C 1013.1 hPa WSW 3.2 km/h 6.4 km/h 78% 0 mm 0 W/m2
02:02 -7.1 °C -10.4 °C 1013.4 hPa West 4.8 km/h 6.4 km/h 77% 0 mm 0 W/m2
02:08 -6.8 °C -10.3 °C 1013.4 hPa West 4.8 km/h 11.3 km/h 76% 0 mm 0 W/m2
02:14 -6.8 °C -10.3 °C 1013.8 hPa West 4.8 km/h 6.4 km/h 76% 0 mm 0 W/m2
02:20 -6.8 °C -10.5 °C 1013.8 hPa West 3.2 km/h 8 km/h 75% 0 mm 0 W/m2
02:26 -6.9 °C -10.8 °C 1013.8 hPa West 3.2 km/h 8 km/h 74% 0 mm 0 W/m2
02:32 -7.1 °C -10.9 °C 1013.8 hPa West 4.8 km/h 11.3 km/h 74% 0 mm 0 W/m2
02:38 -7.2 °C -11.1 °C 1013.8 hPa West 4.8 km/h 11.3 km/h 74% 0 mm 0 W/m2
02:44 -7.3 °C -11.2 °C 1013.8 hPa West 4.8 km/h 4.8 km/h 74% 0 mm 0 W/m2
02:50 -7.4 °C -11.2 °C 1014.1 hPa West 4.8 km/h 4.8 km/h 74% 0 mm 0 W/m2
02:56 -7.5 °C -11.3 °C 1014.1 hPa WSW 4.8 km/h 9.7 km/h 74% 0 mm 0 W/m2
03:02 -7.6 °C -11.6 °C 1014.1 hPa NW 4.8 km/h 4.8 km/h 73% 0 mm 0 W/m2
03:08 -7.7 °C -11.7 °C 1013.8 hPa West 3.2 km/h 8 km/h 73% 0 mm 0 W/m2
03:14 -7.8 °C -11.8 °C 1014.1 hPa WSW 4.8 km/h 4.8 km/h 73% 0 mm 0 W/m2
03:20 -7.8 °C -12 °C 1013.8 hPa WSW 4.8 km/h 4.8 km/h 72% 0 mm 0 W/m2
03:26 -7.9 °C -12.1 °C 1014.1 hPa West 3.2 km/h 4.8 km/h 72% 0 mm 0 W/m2
03:32 -7.9 °C -12.3 °C 1013.8 hPa West 3.2 km/h 3.2 km/h 71% 0 mm 0 W/m2
03:38 -7.9 °C -12.4 °C 1014.1 hPa WSW 3.2 km/h 4.8 km/h 70% 0 mm 0 W/m2
03:44 -8.1 °C -12.6 °C 1014.1 hPa WNW 3.2 km/h 4.8 km/h 70% 0 mm 0 W/m2
03:50 -8.1 °C -12.6 °C 1014.4 hPa West 1.6 km/h 6.4 km/h 70% 0 mm 0 W/m2
03:56 -8.2 °C -12.7 °C 1014.4 hPa West 1.6 km/h 6.4 km/h 70% 0 mm 0 W/m2
04:02 -8.3 °C -12.6 °C 1014.4 hPa WSW 1.6 km/h 1.6 km/h 71% 0 mm 0 W/m2
04:08 -8.4 °C -12.7 °C 1014.4 hPa West 1.6 km/h 4.8 km/h 71% 0 mm 0 W/m2
04:14 -8.4 °C -12.7 °C 1014.4 hPa WSW 1.6 km/h 1.6 km/h 71% 0 mm 0 W/m2
04:20 -8.4 °C -12.7 °C 1014.1 hPa WNW 1.6 km/h 6.4 km/h 71% 0 mm 0 W/m2
04:26 -8.4 °C -12.9 °C 1014.4 hPa SW 1.6 km/h 6.4 km/h 70% 0 mm 0 W/m2
04:32 -8.4 °C -12.9 °C 1014.4 hPa WSW 1.6 km/h 1.6 km/h 70% 0 mm 0 W/m2
04:38 -8.4 °C -12.9 °C 1014.4 hPa West 3.2 km/h 6.4 km/h 70% 0 mm 0 W/m2
04:44 -8.6 °C -12.9 °C 1014.4 hPa SW 3.2 km/h 3.2 km/h 71% 0 mm 0 W/m2
04:50 -8.6 °C -12.9 °C 1014.4 hPa West 3.2 km/h 3.2 km/h 71% 0 mm 0 W/m2
04:56 -8.6 °C -12.9 °C 1014.8 hPa West 3.2 km/h 8 km/h 71% 0 mm 0 W/m2
05:02 -8.7 °C -12.8 °C 1014.8 hPa West 3.2 km/h 4.8 km/h 72% 0 mm 0 W/m2
05:08 -8.7 °C -12.8 °C 1014.8 hPa WSW 3.2 km/h 6.4 km/h 72% 0 mm 0 W/m2
05:14 -8.8 °C -12.9 °C 1014.8 hPa WSW 3.2 km/h 3.2 km/h 72% 0 mm 0 W/m2
05:20 -8.8 °C -12.8 °C 1015.1 hPa SW 3.2 km/h 6.4 km/h 73% 0 mm 0 W/m2
05:26 -8.9 °C -12.8 °C 1015.1 hPa WSW 3.2 km/h 8 km/h 73% 0 mm 0 W/m2
05:32 -8.8 °C -12.7 °C 1015.5 hPa West 3.2 km/h 4.8 km/h 73% 0 mm 0 W/m2
05:38 -8.8 °C -12.8 °C 1015.5 hPa WSW 3.2 km/h 4.8 km/h 73% 0 mm 0 W/m2
05:44 -8.8 °C -12.8 °C 1015.5 hPa West 3.2 km/h 8 km/h 73% 0 mm 0 W/m2
05:50 -8.9 °C -13 °C 1015.5 hPa West 3.2 km/h 6.4 km/h 72% 0 mm 0 W/m2
05:56 -9.1 °C -13 °C 1015.5 hPa West 3.2 km/h 6.4 km/h 73% 0 mm 0 W/m2
06:02 -9.2 °C -13.2 °C 1015.5 hPa SW 3.2 km/h 3.2 km/h 73% 0 mm 0 W/m2
06:08 -9.3 °C -13.3 °C 1015.5 hPa WSW 3.2 km/h 6.4 km/h 73% 0 mm 0 W/m2
06:14 -9.4 °C -13.4 °C 1015.5 hPa WSW 3.2 km/h 3.2 km/h 73% 0 mm 0 W/m2
06:20 -9.5 °C -13.6 °C 1015.5 hPa West 3.2 km/h 3.2 km/h 72% 0 mm 0 W/m2
06:26 -9.7 °C -13.6 °C 1015.5 hPa SW 3.2 km/h 4.8 km/h 73% 0 mm 0 W/m2
06:32 -9.7 °C -13.6 °C 1015.5 hPa SSW 4.8 km/h 4.8 km/h 73% 0 mm 0 W/m2
06:38 -9.8 °C -13.7 °C 1015.8 hPa SW 4.8 km/h 4.8 km/h 73% 0 mm 0 W/m2
06:44 -9.9 °C -13.8 °C 1015.8 hPa SSW 4.8 km/h 9.7 km/h 73% 0 mm 0 W/m2
06:50 -10 °C -13.9 °C 1015.8 hPa WSW 4.8 km/h 4.8 km/h 73% 0 mm 0 W/m2
06:56 -10.1 °C -14.2 °C 1015.8 hPa WSW 4.8 km/h 4.8 km/h 72% 0 mm 0 W/m2
07:02 -10.1 °C -14.1 °C 1016.1 hPa West 4.8 km/h 4.8 km/h 73% 0 mm 0 W/m2
07:08 -10.2 °C -14.2 °C 1016.1 hPa SW 3.2 km/h 4.8 km/h 73% 0 mm 0 W/m2
07:14 -10.2 °C -14.3 °C 1016.1 hPa SW 4.8 km/h 4.8 km/h 72% 0 mm 0 W/m2
07:20 -10.4 °C -14.4 °C 1016.1 hPa SSE 3.2 km/h 6.4 km/h 72% 0 mm 0 W/m2
07:28 -10.4 °C -14.5 °C 1016.5 hPa WSW 3.2 km/h 11.3 km/h 72% 0 mm 0 W/m2
07:34 -10.4 °C -14.9 °C 1016.5 hPa WSW 4.8 km/h 9.7 km/h 70% 0 mm 0 W/m2
07:40 -10.5 °C -14.9 °C 1016.5 hPa WSW 3.2 km/h 3.2 km/h 70% 0 mm 5 W/m2
07:46 -10.6 °C -15 °C 1016.5 hPa West 3.2 km/h 3.2 km/h 70% 0 mm 7 W/m2
07:52 -10.7 °C -15.1 °C 1016.5 hPa SW 3.2 km/h 4.8 km/h 70% 0 mm 9 W/m2
07:58 -10.6 °C -15.2 °C 1016.5 hPa WSW 3.2 km/h 4.8 km/h 69% 0 mm 11 W/m2
08:04 -10.6 °C -15.2 °C 1016.5 hPa WSW 3.2 km/h 4.8 km/h 69% 0 mm 14 W/m2
08:10 -10.6 °C -15.3 °C 1016.5 hPa West 4.8 km/h 4.8 km/h 68% 0 mm 16 W/m2
08:16 -10.4 °C -15.4 °C 1016.8 hPa West 4.8 km/h 6.4 km/h 67% 0 mm 19 W/m2
08:22 -10.3 °C -15.5 °C 1017.2 hPa SW 6.4 km/h 12.9 km/h 66% 0 mm 25 W/m2
08:28 -10.2 °C -15.5 °C 1017.2 hPa West 6.4 km/h 12.9 km/h 65% 0 mm 127 W/m2
08:34 -10 °C -15.5 °C 1017.2 hPa West 4.8 km/h 8 km/h 64% 0 mm 218 W/m2
08:40 -9.7 °C -15.6 °C 1017.2 hPa WNW 3.2 km/h 3.2 km/h 62% 0 mm 241 W/m2
08:46 -9.4 °C -15.9 °C 1017.5 hPa WSW 4.8 km/h 8 km/h 59% 0 mm 169 W/m2
08:52 -9.2 °C -15.8 °C 1017.8 hPa WNW 6.4 km/h 11.3 km/h 59% 0 mm 186 W/m2
08:58 -9.1 °C -15.6 °C 1017.8 hPa SW 6.4 km/h 11.3 km/h 59% 0 mm 202 W/m2
09:04 -8.8 °C -15.4 °C 1018.2 hPa WNW 6.4 km/h 11.3 km/h 59% 0 mm 213 W/m2
09:10 -8.7 °C -15.4 °C 1018.2 hPa West 4.8 km/h 9.7 km/h 58% 0 mm 227 W/m2
09:16 -8.6 °C -15.4 °C 1018.2 hPa WNW 6.4 km/h 11.3 km/h 58% 0 mm 241 W/m2
09:22 -8.3 °C -15.3 °C 1018.2 hPa West 6.4 km/h 6.4 km/h 57% 0 mm 253 W/m2
09:28 -8.2 °C -15.2 °C 1018.2 hPa SW 8 km/h 8 km/h 57% 0 mm 265 W/m2
09:34 -8.1 °C -14.9 °C 1018.2 hPa WNW 6.4 km/h 8 km/h 58% 0 mm 276 W/m2
09:40 -8.1 °C -15.2 °C 1018.2 hPa WSW 6.4 km/h 6.4 km/h 57% 0 mm 288 W/m2
09:46 -7.8 °C -14.8 °C 1018.2 hPa West 6.4 km/h 8 km/h 57% 0 mm 301 W/m2
09:52 -7.4 °C -14.9 °C 1018.2 hPa West 4.8 km/h 4.8 km/h 55% 0 mm 315 W/m2
09:58 -7.7 °C -15.4 °C 1018.5 hPa West 6.4 km/h 12.9 km/h 54% 0 mm 325 W/m2
10:04 -7.6 °C -15.1 °C 1018.5 hPa West 9.7 km/h 9.7 km/h 55% 0 mm 334 W/m2
10:10 -7.4 °C -14.9 °C 1018.8 hPa West 6.4 km/h 6.4 km/h 55% 0 mm 345 W/m2
10:16 -7.3 °C -14.6 °C 1019.2 hPa WSW 6.4 km/h 6.4 km/h 56% 0 mm 352 W/m2
10:22 -7.4 °C -14.7 °C 1019.2 hPa West 8 km/h 9.7 km/h 56% 0 mm 364 W/m2
10:28 -7.4 °C -14.5 °C 1019.2 hPa SW 8 km/h 9.7 km/h 57% 0 mm 373 W/m2
10:34 -7.4 °C -14.5 °C 1018.8 hPa SW 8 km/h 14.5 km/h 57% 0 mm 380 W/m2
10:40 -7.2 °C -14.1 °C 1018.8 hPa West 8 km/h 9.7 km/h 58% 0 mm 388 W/m2
10:46 -7.1 °C -14.2 °C 1019.2 hPa SW 6.4 km/h 9.7 km/h 57% 0 mm 394 W/m2
10:52 -7.3 °C -14.2 °C 1019.2 hPa SW 8 km/h 14.5 km/h 58% 0 mm 404 W/m2
10:58 -7.2 °C -14.3 °C 1019.2 hPa SSW 8 km/h 14.5 km/h 57% 0 mm 410 W/m2
11:06 -7.2 °C -14.4 °C 1019.2 hPa SW 8 km/h 16.1 km/h 56% 0 mm 413 W/m2
11:12 -6.9 °C -14.1 °C 1019.2 hPa SSW 8 km/h 12.9 km/h 57% 0 mm 418 W/m2
11:18 -6.8 °C -14.2 °C 1019.5 hPa WSW 8 km/h 12.9 km/h 56% 0 mm 427 W/m2
11:24 -7 °C -14.6 °C 1019.2 hPa West 8 km/h 8 km/h 55% 0 mm 431 W/m2
11:30 -6.9 °C -14.2 °C 1019.2 hPa SW 8 km/h 12.9 km/h 56% 0 mm 434 W/m2
11:36 -6.8 °C -14.3 °C 1019.2 hPa WSW 8 km/h 12.9 km/h 55% 0 mm 439 W/m2
11:42 -6.6 °C -14.6 °C 1019.2 hPa West 6.4 km/h 8 km/h 53% 0 mm 439 W/m2
11:48 -6.5 °C -14.5 °C 1018.5 hPa WSW 8 km/h 11.3 km/h 53% 0 mm 445 W/m2
11:54 -6.6 °C -14.4 °C 1018.5 hPa SW 8 km/h 8 km/h 54% 0 mm 448 W/m2
12:00 -6.4 °C -14.7 °C 1018.8 hPa WSW 6.4 km/h 14.5 km/h 52% 0 mm 448 W/m2
12:06 -6.6 °C -15.1 °C 1018.8 hPa West 8 km/h 14.5 km/h 51% 0 mm 450 W/m2
12:12 -6.7 °C -15.2 °C 1019.2 hPa WSW 9.7 km/h 16.1 km/h 51% 0 mm 450 W/m2
12:18 -6.6 °C -14.8 °C 1018.8 hPa WSW 9.7 km/h 16.1 km/h 52% 0 mm 448 W/m2
12:26 -6.2 °C -14.9 °C 1018.8 hPa WSW 8 km/h 9.7 km/h 50% 0 mm 448 W/m2
12:32 -6.5 °C -15.2 °C 1018.5 hPa WSW 9.7 km/h 9.7 km/h 50% 0 mm 443 W/m2
12:38 -6.1 °C -14.8 °C 1018.5 hPa WNW 8 km/h 11.3 km/h 50% 0 mm 445 W/m2
12:44 -6.1 °C -14.8 °C 1018.5 hPa West 6.4 km/h 8 km/h 50% 0 mm 439 W/m2
12:50 -6.1 °C -14.6 °C 1018.5 hPa West 6.4 km/h 6.4 km/h 51% 0 mm 438 W/m2
12:56 -6.2 °C -14.9 °C 1018.8 hPa WSW 8 km/h 12.9 km/h 50% 0 mm 432 W/m2
13:03 -6.2 °C -14.9 °C 1019.2 hPa SW 8 km/h 8 km/h 50% 0 mm 427 W/m2
13:08 -6 °C -14.5 °C 1019.2 hPa SSW 8 km/h 11.3 km/h 51% 0 mm 429 W/m2
13:14 -5.9 °C -14.4 °C 1019.2 hPa SSE 8 km/h 9.7 km/h 51% 0 mm 420 W/m2
13:20 -6.1 °C -14.6 °C 1019.2 hPa West 8 km/h 11.3 km/h 51% 0 mm 411 W/m2
13:26 -6.1 °C -14.6 °C 1019.2 hPa WSW 8 km/h 11.3 km/h 51% 0 mm 406 W/m2
13:32 -6.2 °C -14.9 °C 1018.8 hPa WSW 8 km/h 8 km/h 50% 0 mm 403 W/m2
13:38 -5.9 °C -14.9 °C 1018.8 hPa SSW 8 km/h 11.3 km/h 49% 0 mm 396 W/m2
13:44 -5.9 °C -15.2 °C 1019.2 hPa WSW 6.4 km/h 14.5 km/h 48% 0 mm 390 W/m2
13:50 -6.2 °C -14.9 °C 1018.8 hPa WSW 8 km/h 12.9 km/h 50% 0 mm 381 W/m2
13:56 -6.4 °C -15.4 °C 1018.8 hPa WSW 11.3 km/h 19.3 km/h 49% 0 mm 373 W/m2
14:02 -6.1 °C -15.1 °C 1019.2 hPa WSW 8 km/h 11.3 km/h 49% 0 mm 362 W/m2
14:08 -6.1 °C -14.8 °C 1019.2 hPa WNW 8 km/h 11.3 km/h 50% 0 mm 352 W/m2
14:14 -6.3 °C -15.5 °C 1019.2 hPa West 9.7 km/h 12.9 km/h 48% 0 mm 345 W/m2
14:20 -6.2 °C -15.4 °C 1019.2 hPa WSW 9.7 km/h 9.7 km/h 48% 0 mm 332 W/m2
14:26 -6.3 °C -15.5 °C 1019.2 hPa West 8 km/h 11.3 km/h 48% 0 mm 323 W/m2
14:32 -6.2 °C -15.7 °C 1019.2 hPa WSW 9.7 km/h 11.3 km/h 47% 0 mm 311 W/m2
14:38 -6.1 °C -15.3 °C 1019.5 hPa West 8 km/h 14.5 km/h 48% 0 mm 299 W/m2
14:44 -6.2 °C -15.2 °C 1019.2 hPa West 8 km/h 8 km/h 49% 0 mm 288 W/m2
14:50 -5.9 °C -15.4 °C 1019.5 hPa West 6.4 km/h 11.3 km/h 47% 0 mm 274 W/m2
14:56 -6 °C -15.3 °C 1019.2 hPa WSW 4.8 km/h 11.3 km/h 48% 0 mm 262 W/m2
15:02 -6 °C -15.5 °C 1019.2 hPa WSW 6.4 km/h 8 km/h 47% 0 mm 250 W/m2
15:08 -6.2 °C -15.4 °C 1019.2 hPa WNW 6.4 km/h 9.7 km/h 48% 0 mm 237 W/m2
15:14 -6 °C -15 °C 1019.2 hPa WSW 6.4 km/h 8 km/h 49% 0 mm 225 W/m2
15:20 -6 °C -15.3 °C 1019.2 hPa WSW 4.8 km/h 6.4 km/h 48% 0 mm 211 W/m2
15:26 -6.2 °C -15.7 °C 1019.5 hPa West 6.4 km/h 9.7 km/h 47% 0 mm 197 W/m2
15:32 -6.1 °C -15.1 °C 1019.5 hPa WNW 6.4 km/h 11.3 km/h 49% 0 mm 181 W/m2
15:38 -6.3 °C -15.3 °C 1019.9 hPa WSW 8 km/h 11.3 km/h 49% 0 mm 165 W/m2
15:44 -6.4 °C -15.4 °C 1019.9 hPa West 8 km/h 8 km/h 49% 0 mm 151 W/m2
15:50 -6.4 °C -15.1 °C 1019.9 hPa West 6.4 km/h 6.4 km/h 50% 0 mm 63 W/m2
15:56 -6.6 °C -15.3 °C 1019.9 hPa WSW 4.8 km/h 6.4 km/h 50% 0 mm 35 W/m2
16:02 -6.7 °C -15.7 °C 1020.2 hPa South 6.4 km/h 9.7 km/h 49% 0 mm 25 W/m2
16:08 -6.8 °C -15.3 °C 1020.2 hPa SW 8 km/h 11.3 km/h 51% 0 mm 26 W/m2
16:14 -6.9 °C -15.3 °C 1020.2 hPa WSW 6.4 km/h 8 km/h 51% 0 mm 47 W/m2
16:20 -6.9 °C -15.3 °C 1020.2 hPa WSW 6.4 km/h 6.4 km/h 51% 0 mm 16 W/m2
16:26 -7 °C -15.4 °C 1020.2 hPa WSW 6.4 km/h 11.3 km/h 51% 0 mm 14 W/m2
16:32 -7.2 °C -15.4 °C 1020.5 hPa West 6.4 km/h 8 km/h 52% 0 mm 11 W/m2
16:38 -7.2 °C -15.2 °C 1020.5 hPa West 4.8 km/h 8 km/h 53% 0 mm 7 W/m2
16:44 -7.3 °C -15.3 °C 1020.5 hPa WSW 3.2 km/h 9.7 km/h 53% 0 mm 5 W/m2
16:50 -7.4 °C -15.2 °C 1020.5 hPa West 3.2 km/h 4.8 km/h 54% 0 mm 0 W/m2
16:56 -7.6 °C -15.5 °C 1020.9 hPa West 3.2 km/h 11.3 km/h 53% 0 mm 0 W/m2
17:02 -7.7 °C -15.2 °C 1020.9 hPa WSW 3.2 km/h 3.2 km/h 55% 0 mm 0 W/m2
17:08 -7.7 °C -15 °C 1020.9 hPa West 3.2 km/h 4.8 km/h 56% 0 mm 0 W/m2
17:14 -7.8 °C -15.1 °C 1021.2 hPa West 4.8 km/h 8 km/h 56% 0 mm 0 W/m2
17:20 -7.9 °C -14.9 °C 1021.2 hPa WSW 3.2 km/h 3.2 km/h 57% 0 mm 0 W/m2
17:26 -7.9 °C -15 °C 1021.2 hPa WSW 1.6 km/h 4.8 km/h 57% 0 mm 0 W/m2
17:32 -8 °C -15.1 °C 1021.6 hPa WSW 1.6 km/h 3.2 km/h 57% 0 mm 0 W/m2
17:38 -8.1 °C -14.9 °C 1021.6 hPa WSW 1.6 km/h 3.2 km/h 58% 0 mm 0 W/m2
17:44 -8.1 °C -14.9 °C 1021.9 hPa WSW 3.2 km/h 6.4 km/h 58% 0 mm 0 W/m2
17:50 -8.2 °C -14.8 °C 1021.9 hPa WSW 1.6 km/h 3.2 km/h 59% 0 mm 0 W/m2
17:56 -8.2 °C -14.8 °C 1021.9 hPa WSW 1.6 km/h 8 km/h 59% 0 mm 0 W/m2
18:02 -8.3 °C -14.9 °C 1021.9 hPa WSW 1.6 km/h 1.6 km/h 59% 0 mm 0 W/m2
18:08 -8.4 °C -15 °C 1021.9 hPa Calm   1.6 km/h 59% 0 mm 0 W/m2
18:14 -8.4 °C -15 °C 1021.9 hPa WSW 1.6 km/h 9.7 km/h 59% 0 mm 0 W/m2
18:20 -8.4 °C -15.2 °C 1021.9 hPa West 1.6 km/h 3.2 km/h 58% 0 mm 0 W/m2
18:26 -8.3 °C -15.1 °C 1022.2 hPa West 3.2 km/h 3.2 km/h 58% 0 mm 0 W/m2
18:32 -8.3 °C -15.2 °C 1022.2 hPa West 1.6 km/h 1.6 km/h 58% 0 mm 0 W/m2
18:38 -8.4 °C -15.1 °C 1022.6 hPa West 1.6 km/h 1.6 km/h 59% 0 mm 0 W/m2
18:44 -8.4 °C -15.1 °C 1022.9 hPa WSW 1.6 km/h 6.4 km/h 59% 0 mm 0 W/m2
18:50 -8.4 °C -14.8 °C 1022.9 hPa West 3.2 km/h 3.2 km/h 60% 0 mm 0 W/m2
18:56 -8.4 °C -14.8 °C 1022.9 hPa WSW 1.6 km/h 4.8 km/h 60% 0 mm 0 W/m2
19:02 -8.3 °C -14.9 °C 1022.9 hPa WSW 3.2 km/h 3.2 km/h 59% 0 mm 0 W/m2
19:08 -8.2 °C -14.8 °C 1022.9 hPa WNW 3.2 km/h 3.2 km/h 59% 0 mm 0 W/m2
19:14 -8.2 °C -14.8 °C 1023.2 hPa WNW 3.2 km/h 4.8 km/h 59% 0 mm 0 W/m2
19:20 -8.3 °C -14.9 °C 1023.2 hPa West 3.2 km/h 3.2 km/h 59% 0 mm 0 W/m2
19:26 -8.3 °C -14.9 °C 1023.6 hPa West 1.6 km/h 4.8 km/h 59% 0 mm 0 W/m2
19:32 -8.3 °C -14.9 °C 1023.6 hPa West 1.6 km/h 3.2 km/h 59% 0 mm 0 W/m2
19:38 -8.4 °C -14.8 °C 1023.6 hPa West 1.6 km/h 3.2 km/h 60% 0 mm 0 W/m2
19:44 -8.4 °C -14.8 °C 1023.6 hPa West 1.6 km/h 3.2 km/h 60% 0 mm 0 W/m2
19:50 -8.5 °C -14.9 °C 1023.9 hPa SW 1.6 km/h 3.2 km/h 60% 0 mm 0 W/m2
19:56 -8.6 °C -14.7 °C 1023.9 hPa WSW 1.6 km/h 3.2 km/h 61% 0 mm 0 W/m2
20:02 -8.7 °C -14.9 °C 1023.9 hPa Calm   1.6 km/h 61% 0 mm 0 W/m2
20:08 -8.9 °C -14.9 °C 1023.9 hPa Calm   3.2 km/h 62% 0 mm 0 W/m2
20:14 -9.2 °C -14.9 °C 1023.9 hPa Calm     63% 0 mm 0 W/m2
20:20 -9.6 °C -14.9 °C 1023.9 hPa Calm     65% 0 mm 0 W/m2
20:26 -9.9 °C -14.7 °C 1023.9 hPa Calm     68% 0 mm 0 W/m2
20:32 -10.2 °C -14.8 °C 1023.9 hPa Calm     69% 0 mm 0 W/m2
20:38 -10.5 °C -14.9 °C 1024.3 hPa Calm     70% 0 mm 0 W/m2
20:44 -10.7 °C -14.8 °C 1024.3 hPa Calm     72% 0 mm 0 W/m2
20:50 -10.9 °C -14.9 °C 1024.3 hPa Calm     72% 0 mm 0 W/m2
20:56 -11.1 °C -14.9 °C 1024.3 hPa Calm     73% 0 mm 0 W/m2
21:02 -11.2 °C -14.9 °C 1024.3 hPa Calm     74% 0 mm 0 W/m2
21:08 -11.3 °C -14.8 °C 1024.3 hPa Calm     75% 0 mm 0 W/m2
21:14 -11.3 °C -14.9 °C 1024.3 hPa Calm     75% 0 mm 0 W/m2
21:20 -11.4 °C -15 °C 1024.3 hPa Calm     75% 0 mm 0 W/m2
21:26 -11.5 °C -14.9 °C 1024.3 hPa Calm     76% 0 mm 0 W/m2
21:32 -11.6 °C -15 °C 1024.3 hPa Calm     76% 0 mm 0 W/m2
21:38 -11.7 °C -14.9 °C 1023.9 hPa Calm     77% 0 mm 0 W/m2
21:44 -11.8 °C -14.8 °C 1024.3 hPa Calm     78% 0 mm 0 W/m2
21:50 -11.9 °C -14.9 °C 1024.3 hPa Calm     78% 0 mm 0 W/m2
21:56 -11.9 °C -15 °C 1024.3 hPa Calm     78% 0 mm 0 W/m2
22:02 -12.1 °C -15 °C 1024.3 hPa Calm     79% 0 mm 0 W/m2
22:08 -12.2 °C -15.1 °C 1024.6 hPa Calm     79% 0 mm 0 W/m2
22:14 -12.3 °C -15.2 °C 1024.6 hPa Calm     79% 0 mm 0 W/m2
22:20 -12.4 °C -15.3 °C 1024.6 hPa Calm     79% 0 mm 0 W/m2
22:26 -12.4 °C -15.1 °C 1024.6 hPa Calm     80% 0 mm 0 W/m2
22:32 -12.4 °C -15.1 °C 1024.6 hPa Calm     80% 0 mm 0 W/m2
22:38 -12.4 °C -15.2 °C 1024.6 hPa Calm     80% 0 mm 0 W/m2
22:44 -12.5 °C -15.2 °C 1024.6 hPa Calm     80% 0 mm 0 W/m2
22:50 -12.5 °C -15.1 °C 1024.6 hPa Calm     81% 0 mm 0 W/m2
22:56 -12.5 °C -15.1 °C 1024.6 hPa Calm     81% 0 mm 0 W/m2
23:02 -12.4 °C -15.1 °C 1024.6 hPa Calm     81% 0 mm 0 W/m2
23:08 -12.3 °C -14.7 °C 1024.6 hPa Calm     82% 0 mm 0 W/m2
23:14 -12.2 °C -14.6 °C 1024.6 hPa Calm     82% 0 mm 0 W/m2
23:20 -12.1 °C -14.7 °C 1024.6 hPa Calm     81% 0 mm 0 W/m2
23:26 -11.9 °C -14.5 °C 1024.9 hPa Calm     81% 0 mm 0 W/m2
23:32 -11.8 °C -14.6 °C 1024.9 hPa Calm   4.8 km/h 80% 0 mm 0 W/m2
23:38 -11.2 °C -14.2 °C 1025.3 hPa Calm   4.8 km/h 79% 0 mm 0 W/m2
23:44 -10.8 °C -14 °C 1025.3 hPa WSW 1.6 km/h 4.8 km/h 77% 0 mm 0 W/m2
23:50 -10.4 °C -14 °C 1025.3 hPa WSW 1.6 km/h 1.6 km/h 75% 0 mm 0 W/m2
23:56 -10.2 °C -14 °C 1025.3 hPa SSW 1.6 km/h 1.6 km/h 74% 0 mm 0 W/m2
Country Meadow, Clay, NY, USA
Compliments of Weather Underground - 2 mb